STARLINK-4091, 52830

Orbit data source: Space-Track

STARLINK-4091, 52830 is a payload satellite owned by SpaceX/Seattle (US) in LEO that was launched on Fri, 17 Jun 2022 UTC via an FALCON 9 launch vehicle from the Air Force Eastern Test Range (AFETR). Payload-class satellites include a variety of spacecraft equipped with specific instruments for various scientific and technological missions. These include communications satellites like Starlink; space stations such as the ISS; scientific satellites like the Hubble; Earth observation satellites from companies like Planet Labs, Umbra, and HawkEye 360; GPS; miniature CubeSats for education and research; and military/defense satellites.

Loading next visibility...
Identifier
52830, 2022-062A
Orbit
LEO
Country
Flag of USUS
Related business
Manufacturer
SpaceX/Seattle
Mission
Operational Commercial Communications
Bus & Motor
STARLINK, Unknown motor
Mass
297 kg wet, ~275 kg dry
Launch date (UTC)
2022-06-17 (3 years ago)
Launch vehicle
FALCON 9
Launch site
Air Force Eastern Test Range (AFETR)
Object type
Payload
Rocket body
Debris
Shape & HBR
Box + 1 Pan, 10.1 m
Radar Cross Section
13.562 m², Large (>1 m²)

Expand to show TLE details & history
Last TLE update: 1 day ago

TLE from 1 day ago
0 STARLINK-4091
1 52830U 22062A   25348.59852761  .00002216  00000-0  15729-3 0  9993
2 52830  53.2179  56.3032 0001577  92.2518 267.8655 15.08839102192933
Epoch: 2025-12-14T14:21Z
TLE epoch observation values (Epoch: 2025-12-14T14:21:52.785Z)
Latitude
-0°
Longitude
117.32412°
Altitude
540.684 km
Speed
7.593 km/s
True Right ascension
03h 45m 12s
True Declination
0° 00' 00"
Sunlit
Object was in full shadow at epoch
Visualization orbit readout
Latitude
Unknown
Longitude
Unknown
Altitude
Unknown
Speed
Unknown
Apparent Right ascension
Unknown
Apparent Declination
Unknown
Sunlit
N/A
Visualization observer readout
Local Sidereal Time
13:24:38
Azimuth
Unknown
Elevation
Unknown
Doppler factor
Unknown
Orbital elements
Apogee altitude
541.082 km
Perigee altitude
538.9 km
Semi-major axis
6,918.128 km
Eccentricity
0.00016
Inclination
53.2179°
RAAN
56.3032°
Arg. of periapsis
92.2518°
True anomaly
267.84744°
Mean anomaly
267.8655°
Eccentric anomaly
267.85647°
Mean motion
3.7719 °/min
Orbital period
95.44 mins
BSTAR
0.00015729
Loading maneuver chart data...
Computing Atmospheric mass density...
Loading historical data...
Loading historical data...
Loading historical data...
Loading historical data...
Loading historical data...
Loading historical data...
Loading historical data...

Documentation

Showing up to 5 results
|